Fredericksburg, VA

6:35 AM EST on February 22, 2017 (GMT -0500)
Stafford

Weather History for KRMN - March, 2013

Change the Weather History Date:

Thursday, March 28, 2013

  Actual Average (KNYG) Record (KNYG)
Temperature  
Mean Temperature 39 °F -  
Max Temperature 51 °F 58 °F 80 °F (2012)
Min Temperature 27 °F 39 °F 24 °F (2001)
Degree Days  
Heating Degree Days 26    
Moisture  
Dew Point 28 °F    
Average Humidity 61    
Maximum Humidity 92    
Minimum Humidity 41    
Precipitation  
Precipitation 0.00 in - - ()
Sea Level Pressure  
Sea Level Pressure 30.20 in    
Wind  
Wind Speed 7 mph (NW)    
Max Wind Speed 22 mph    
Max Gust Speed 29 mph    
Visibility 10 miles    
Events      
Averages and records for this station are not official NWS values.
T = Trace of Precipitation, MM = Missing Value Source: NWS Daily Summary

Daily Weather History Graph

Daily Weather History Graph

Search for Another Location

Airport or City:

Trip Planner

Search our weather history database for the weather conditions in past years. The results will help you decide how hot, cold, wet, or windy it might be!

Date:

Astronomy

Mar. 28, 2013 Rise Set
Actual Time 7:00 AM EDT 7:29 PM EDT
Civil Twilight 6:34 AM EDT 7:56 PM EDT
Nautical Twilight 6:02 AM EDT 8:27 PM EDT
Astronomical Twilight 5:30 AM EDT 8:59 PM EDT
Moon 9:17 PM EDT (3/28) 7:28 AM EDT (3/28)
Length of Visible Light 13h 22m
Length of Day
12h 29m
Full, 98% of the Moon is Illuminated
Mar 28
Full
Apr 3
Last Quarter
Apr 10
New
Apr 18
First Quarter
Apr 25
Full

Hourly Weather History & Observations

Time (EDT) Temp. Windchill Dew Point Humidity Pressure Visibility Wind Dir Wind Speed Gust Speed Precip Events Conditions
12:15 AM 34.7 °F 28.8 °F 25.5 °F 69% 30.19 in 10.0 mi West 6.9 mph - N/A   Clear
12:35 AM 34.9 °F 29.0 °F 25.7 °F 69% 30.19 in 10.0 mi WNW 6.9 mph - N/A   Scattered Clouds
12:55 AM 35.2 °F 31.2 °F 25.7 °F 68% 30.18 in 10.0 mi WNW 4.6 mph - N/A   Clear
1:15 AM 35.2 °F 31.2 °F 25.5 °F 68% 30.19 in 10.0 mi West 4.6 mph - N/A   Mostly Cloudy
1:35 AM 35.6 °F 32.8 °F 25.5 °F 67% 30.18 in 10.0 mi West 3.5 mph - N/A   Mostly Cloudy
1:55 AM 35.1 °F - 25.7 °F 69% 30.18 in 10.0 mi Calm Calm - N/A   Scattered Clouds
2:15 AM 32.9 °F - 25.5 °F 74% 30.18 in 10.0 mi Calm Calm - N/A   Clear
2:35 AM 33.4 °F - 25.7 °F 73% 30.18 in 10.0 mi Calm Calm - N/A   Clear
2:55 AM 32.0 °F - 25.7 °F 78% 30.18 in 10.0 mi Calm Calm - N/A   Scattered Clouds
3:35 AM 32.9 °F 28.5 °F 25.7 °F 75% 30.17 in 10.0 mi West 4.6 mph - N/A   Clear
3:55 AM 34.7 °F 31.8 °F 25.5 °F 69% 30.17 in 10.0 mi West 3.5 mph - N/A   Clear
4:15 AM 34.9 °F - 25.5 °F 69% 30.16 in 10.0 mi Calm Calm - N/A   Clear
4:35 AM 30.9 °F 26.2 °F 25.3 °F 80% 30.15 in 10.0 mi West 4.6 mph - N/A   Clear
4:55 AM 31.8 °F 28.5 °F 25.5 °F 78% 30.15 in 10.0 mi WSW 3.5 mph - N/A   Clear
5:15 AM 33.3 °F 28.9 °F 25.5 °F 73% 30.16 in 10.0 mi West 4.6 mph - N/A   Clear
5:35 AM 32.2 °F - 25.3 °F 76% 30.16 in 10.0 mi Calm Calm - N/A   Clear
5:55 AM 30.0 °F - 24.8 °F 81% 30.16 in 10.0 mi Calm Calm - N/A   Clear
6:15 AM 30.4 °F - 25.2 °F 81% 30.16 in 10.0 mi Calm Calm - N/A   Clear
6:35 AM 27.3 °F - 25.2 °F 92% 30.17 in 10.0 mi Calm Calm - N/A   Clear
6:55 AM 29.1 °F - 25.2 °F 85% 30.17 in 10.0 mi Calm Calm - N/A   Clear
7:15 AM 29.3 °F - 24.8 °F 83% 30.18 in 10.0 mi Calm Calm - N/A   Clear
7:35 AM 28.0 °F - 25.0 °F 88% 30.18 in 10.0 mi Calm Calm - N/A   Clear
7:55 AM 29.5 °F - 26.6 °F 89% 30.19 in 10.0 mi Calm Calm - N/A   Scattered Clouds
8:15 AM 34.0 °F - 29.1 °F 82% 30.19 in 10.0 mi Calm Calm - N/A   Mostly Cloudy
8:35 AM 37.2 °F 34.7 °F 28.0 °F 69% 30.19 in 10.0 mi West 3.5 mph - N/A   Scattered Clouds
8:55 AM 39.7 °F 37.6 °F 28.2 °F 63% 30.19 in 10.0 mi WNW 3.5 mph - N/A   Scattered Clouds
9:15 AM 42.3 °F 37.9 °F 28.9 °F 59% 30.18 in 10.0 mi WNW 6.9 mph - N/A   Clear
9:35 AM 44.6 °F 40.2 °F 28.4 °F 53% 30.18 in 10.0 mi NW 8.1 mph - N/A   Clear
9:55 AM 45.7 °F 39.5 °F 29.7 °F 54% 30.18 in 10.0 mi WNW 13.8 mph 21.9 mph N/A   Scattered Clouds
10:15 AM 45.3 °F 37.6 °F 28.6 °F 52% 30.18 in 10.0 mi WNW 19.6 mph 24.2 mph N/A   Mostly Cloudy
10:35 AM 45.5 °F 38.1 °F 28.2 °F 51% 30.19 in 10.0 mi NW 18.4 mph 25.3 mph N/A   Mostly Cloudy
10:55 AM 46.4 °F 39.5 °F 28.6 °F 50% 30.19 in 10.0 mi NW 17.3 mph 28.8 mph N/A   Scattered Clouds
11:15 AM 50.4 °F - 30.4 °F 46% 30.19 in 10.0 mi WNW 13.8 mph 25.3 mph N/A   Mostly Cloudy
11:35 AM 50.5 °F - 30.2 °F 46% 30.19 in 10.0 mi WNW 17.3 mph 23.0 mph N/A   Mostly Cloudy
11:55 AM 51.3 °F - 30.4 °F 45% 30.18 in 10.0 mi NW 19.6 mph 25.3 mph N/A   Scattered Clouds
12:15 PM 50.5 °F - 29.7 °F 45% 30.19 in 10.0 mi NW 21.9 mph 28.8 mph N/A   Mostly Cloudy
12:35 PM 49.5 °F - 29.1 °F 46% 30.19 in 10.0 mi NW 19.6 mph 26.5 mph N/A   Overcast
12:55 PM 49.6 °F - 29.7 °F 46% 30.19 in 10.0 mi NW 11.5 mph 23.0 mph N/A   Overcast
1:15 PM 49.5 °F - 29.3 °F 46% 30.18 in 10.0 mi NW 16.1 mph 23.0 mph N/A   Overcast
1:35 PM 49.6 °F - 28.6 °F 44% 30.18 in 10.0 mi NNW 17.3 mph 24.2 mph N/A   Overcast
1:55 PM 51.4 °F - 28.9 °F 42% 30.18 in 10.0 mi WNW 15.0 mph 26.5 mph N/A   Overcast
2:15 PM 51.8 °F - 29.7 °F 43% 30.18 in 10.0 mi NW 13.8 mph 25.3 mph N/A   Overcast
2:35 PM 51.8 °F - 28.9 °F 41% 30.17 in 10.0 mi NW 12.7 mph 25.3 mph N/A   Mostly Cloudy
2:55 PM 51.1 °F - 28.2 °F 41% 30.17 in 10.0 mi NW 17.3 mph 26.5 mph N/A   Overcast
3:15 PM 49.5 °F - 28.2 °F 44% 30.17 in 10.0 mi NNW 16.1 mph 21.9 mph N/A   Overcast
3:35 PM 50.2 °F - 28.8 °F 44% 30.17 in 10.0 mi NNW 20.7 mph 24.2 mph N/A   Overcast
3:55 PM 49.1 °F - 28.6 °F 45% 30.18 in 10.0 mi North 13.8 mph 24.2 mph N/A   Overcast
4:15 PM 49.5 °F - 28.8 °F 45% 30.18 in 10.0 mi NW 16.1 mph 23.0 mph N/A   Mostly Cloudy
4:35 PM 49.1 °F - 28.8 °F 45% 30.19 in 10.0 mi NW 16.1 mph 23.0 mph N/A   Overcast
4:55 PM 48.4 °F - 30.6 °F 50% 30.20 in 10.0 mi NW 17.3 mph 25.3 mph N/A   Overcast
5:15 PM 48.0 °F - 30.7 °F 51% 30.20 in 10.0 mi NW 10.4 mph 20.7 mph N/A   Mostly Cloudy
5:35 PM 48.6 °F - 30.6 °F 50% 30.20 in 10.0 mi NW 16.1 mph 24.2 mph N/A   Scattered Clouds
5:55 PM 49.1 °F - 30.0 °F 48% 30.20 in 10.0 mi WNW 10.4 mph - N/A   Overcast
6:15 PM 48.4 °F - 29.8 °F 49% 30.21 in 10.0 mi NNW 17.3 mph 26.5 mph N/A   Overcast
6:35 PM 47.3 °F - 28.2 °F 48% 30.22 in 10.0 mi NNW 15.0 mph 24.2 mph N/A   Mostly Cloudy
6:55 PM 47.3 °F - 28.8 °F 49% 30.23 in 10.0 mi NW 17.3 mph 23.0 mph N/A   Overcast
7:15 PM 46.4 °F 40.7 °F 29.3 °F 51% 30.24 in 10.0 mi NW 12.7 mph 17.3 mph N/A   Overcast
7:35 PM 46.2 °F 40.8 °F 29.5 °F 52% 30.24 in 10.0 mi NW 11.5 mph 20.7 mph N/A   Overcast
7:55 PM 45.5 °F 41.3 °F 29.5 °F 54% 30.25 in 10.0 mi NW 8.1 mph - N/A   Overcast
8:15 PM 44.2 °F 41.0 °F 29.8 °F 57% 30.25 in 10.0 mi NNW 5.8 mph - N/A   Overcast
8:35 PM 42.8 °F 40.1 °F 29.3 °F 59% 30.26 in 10.0 mi NW 4.6 mph - N/A   Mostly Cloudy
8:55 PM 41.7 °F 38.8 °F 29.1 °F 61% 30.27 in 10.0 mi NW 4.6 mph - N/A   Mostly Cloudy
9:15 PM 42.4 °F 38.8 °F 30.2 °F 62% 30.27 in 10.0 mi NNW 5.8 mph - N/A   Overcast
9:35 PM 39.9 °F 36.7 °F 29.8 °F 67% 30.28 in 10.0 mi NW 4.6 mph - N/A   Mostly Cloudy
9:55 PM 39.7 °F 36.5 °F 29.7 °F 67% 30.28 in 10.0 mi NW 4.6 mph - N/A   Scattered Clouds
10:15 PM 38.5 °F 35.0 °F 29.7 °F 71% 30.28 in 10.0 mi NW 4.6 mph - N/A   Mostly Cloudy
10:35 PM 38.1 °F - 30.0 °F 73% 30.29 in 10.0 mi Calm Calm - N/A   Mostly Cloudy
10:55 PM 40.3 °F - 29.8 °F 66% 30.29 in 10.0 mi Calm Calm - N/A   Scattered Clouds
11:15 PM 36.3 °F 33.7 °F 29.3 °F 76% 30.29 in 10.0 mi WNW 3.5 mph - N/A   Scattered Clouds
11:35 PM 33.6 °F 29.4 °F 28.9 °F 83% 30.29 in 10.0 mi WNW 4.6 mph - N/A   Mostly Cloudy
11:55 PM 36.5 °F 33.9 °F 30.0 °F 77% 30.29 in 10.0 mi NW 3.5 mph - N/A   Overcast